This demonstration page uses our WeatherBlox Daily Observations layout. Learn more.

Left ArrowRight Arrow

39.51506, -84.39828

Hourly Observations for February 14, 2017

Temp ( °F °C ) Dew Point ( °F °C ) Humidity (%) Winds ( mph kmh ) Pressure ( in mb ) Visibility ( mi km ) Precip ( " mm )
12:53 am 00:53 Partly Cloudy 34 1.1 24 -4.4 67 67 SSW 7 11 30.05 1018 10 16 0.00 0.00
1:53 am 01:53 Mostly Cloudy 35 1.7 23 -5 61 61 SSW 5 7 30.03 1017 10 16 0.00 0.00
2:53 am 02:53 Cloudy 36 2.2 23 -5 59 59 SSW 7 11 30.01 1016 10 16 0.00 0.00
3:53 am 03:53 Cloudy 37 2.8 21 -6.1 52 52 SW 6 9 29.98 1015 10 16 0.00 0.00
4:53 am 04:53 Cloudy 37 2.8 21 -6.1 52 52 SW 5 7 29.97 1015 10 16 0.00 0.00
5:53 am 05:53 Cloudy 37 2.8 22 -5.6 54 54 SSW 6 9 29.96 1014 10 16 0.00 0.00
6:53 am 06:53 Cloudy 38 3.3 23 -5 55 55 SSW 8 13 29.96 1015 10 16 0.00 0.00
7:53 am 07:53 Partly Cloudy 38 3.3 27 -2.8 65 65 SSW 7 11 29.97 1015 10 16 0.00 0.00
8:53 am 08:53 Sunny 38 3.3 30 -1.1 73 73 SW 10 17 29.96 1015 10 16 0.00 0.00
9:53 am 09:53 Sunny 40 4.4 31 -0.6 70 70 SW 14 22 29.93 1013 10 16 0.00 0.00
10:53 am 10:53 Sunny 44 6.7 28 -2.2 53 53 SW 16 26 29.89 1012 10 16 0.00 0.00
11:53 am 11:53 Sunny 46 7.8 27 -2.8 47 47 WSW 15 24 29.89 1012 10 16 0.00 0.00
12:53 pm 12:53 Sunny 50 10 25 -3.9 38 38 WSW 13 20 29.86 1011 10 16 0.00 0.00
1:53 pm 13:53 Sunny 50 10 25 -3.9 38 38 SW 16 26 29.84 1010 10 16 0.00 0.00
2:53 pm 14:53 Sunny 51 10.6 26 -3.3 38 38 W 18 30 29.80 1009 10 16 0.00 0.00
3:53 pm 15:53 Sunny 50 10 28 -2.2 43 43 SW 12 19 29.79 1009 10 16 0.00 0.00
4:53 pm 16:53 Sunny 50 10 28 -2.2 43 43 WSW 14 22 29.78 1008 10 16 0.00 0.00
5:53 pm 17:53 Sunny 49 9.4 27 -2.8 43 43 SW 10 17 29.76 1008 10 16 0.00 0.00
6:53 pm 18:53 Clear 48 8.9 27 -2.8 44 44 WSW 13 20 29.76 1008 10 16 0.00 0.00
7:53 pm 19:53 Clear 47 8.3 27 -2.8 46 46 WSW 13 20 29.75 1007 10 16 0.00 0.00
8:53 pm 20:53 Clear 46 7.8 27 -2.8 47 47 SW 12 19 29.72 1007 10 16 0.00 0.00
9:53 pm 21:53 Clear 45 7.2 27 -2.8 49 49 WSW 12 19 29.72 1006 10 16 0.00 0.00
10:53 pm 22:53 Clear 44 6.7 28 -2.2 53 53 WSW 12 19 29.71 1006 10 16 0.00 0.00
11:53 pm 23:53 Clear 43 6.1 29 -1.7 58 58 WSW 10 17 29.69 1005 10 16 0.00 0.00

Powered by AerisWeather